{"data":{"norad_id":81427,"epoch":"2026-09-17T08:57:43.688448Z","epoch_age_seconds":285232,"freshness":"STALE","line1":"1 81427U          26260.37342232  .00000724  00000+0  44173-3 0  9998","line2":"2 81427  98.7158 138.1922 0084439 333.9274  25.7654 14.07352723590958","mean_motion":14.07352723,"eccentricity":0.0084439,"inclination_deg":98.7158,"raan_deg":138.1922,"arg_perigee_deg":333.9274,"mean_anomaly_deg":25.7654,"bstar":0.00044173,"rev_number":59095,"period_min":102.31976507854,"perigee_km":807.25545256642,"apogee_km":929.63427778917,"semimajor_km":7246.5818651778,"source":"CELESTRAK","updated_at":"2026-09-20T09:00:32.388406Z"}}